Change the Weather History Date:

Friday, November 2, 2012

  Actual Average Record
Temperature  
Mean Temperature 37 °F -  
Max Temperature 40 °F 49 °F 67 °F (1953)
Min Temperature 34 °F 36 °F 23 °F (2014)
Degree Days  
Heating Degree Days 28    
Moisture  
Dew Point 29 °F    
Average Humidity 73    
Maximum Humidity 87    
Minimum Humidity 64    
Precipitation  
Precipitation 0.00 in - - ()
Sea Level Pressure  
Sea Level Pressure 29.99 in    
Wind  
Wind Speed 11 mph (NNW)    
Max Wind Speed 15 mph    
Max Gust Speed 26 mph    
Visibility 10 miles    
Events Rain , Snow    
Averages and records for this station are not official NWS values.
T = Trace of Precipitation, MM = Missing Value Source: NWS Daily Summary

Daily Weather History Graph

Daily Weather History Graph

Search for Another Location

Airport or City:

Trip Planner

Search our weather history database for the weather conditions in past years. The results will help you decide how hot, cold, wet, or windy it might be!

Date:

Astronomy

Nov. 02, 2012 Rise Set
Actual Time 8:24 AM EDT 6:26 PM EDT
Civil Twilight 7:53 AM EDT 6:57 PM EDT
Nautical Twilight 7:17 AM EDT 7:33 PM EDT
Astronomical Twilight 6:43 AM EDT 8:07 PM EDT
Moon 9:07 PM EDT (11/2) 11:50 AM EDT (11/2)
Length of Visible Light 11h 04m
Length of Day
10h 02m
Waning Gibbous, 87% of the Moon is Illuminated
Nov 2
Waning Gibbous
Nov 6
Last Quarter
Nov 13
New
Nov 20
First Quarter
Nov 28
Full

Hourly Weather History & Observations

Time (EDT) Temp. Windchill Dew Point Humidity Pressure Visibility Wind Dir Wind Speed Gust Speed Precip Events Conditions
12:16 AM 36.5 °F 28.2 °F 30.4 °F 78% 29.82 in 10.0 mi NNW 12.7 mph 20.7 mph N/A   Overcast
12:37 AM 36.5 °F 28.2 °F 30.4 °F 78% 29.83 in 10.0 mi NNW 12.7 mph 25.3 mph N/A   Overcast
12:56 AM 36.5 °F 28.7 °F 29.1 °F 75% 29.83 in 10.0 mi NNW 11.5 mph 21.9 mph N/A   Overcast
1:16 AM 34.5 °F 26.7 °F 30.9 °F 87% 29.84 in 3.0 mi NNW 10.4 mph 17.3 mph N/A Snow Light Snow
1:36 AM 34.7 °F 27.5 °F 31.1 °F 87% 29.85 in 10.0 mi NNW 9.2 mph 16.1 mph N/A Rain Light Rain
1:56 AM 35.1 °F 27.4 °F 28.9 °F 78% 29.85 in 10.0 mi North 10.4 mph 18.4 mph N/A   Overcast
2:16 AM 35.2 °F 26.2 °F 27.9 °F 74% 29.85 in 10.0 mi North 13.8 mph 19.6 mph N/A   Overcast
2:36 AM 35.6 °F 27.5 °F 27.3 °F 72% 29.86 in 10.0 mi NNW 11.5 mph 26.5 mph N/A   Overcast
2:57 AM 35.4 °F 27.3 °F 26.8 °F 71% 29.87 in 10.0 mi NNW 11.5 mph 25.3 mph N/A   Overcast
3:16 AM 35.4 °F 26.8 °F 27.0 °F 71% 29.87 in 10.0 mi North 12.7 mph 19.6 mph N/A   Overcast
3:36 AM 35.2 °F 28.1 °F 27.0 °F 72% 29.88 in 10.0 mi NNW 9.2 mph 19.6 mph N/A   Overcast
3:57 AM 35.1 °F 26.9 °F 27.1 °F 73% 29.88 in 10.0 mi North 11.5 mph 17.3 mph N/A   Overcast
4:16 AM 35.6 °F 28.6 °F 26.6 °F 70% 29.88 in 10.0 mi NNW 9.2 mph 21.9 mph N/A   Overcast
4:36 AM 35.6 °F 28.0 °F 27.0 °F 71% 29.89 in 10.0 mi NNW 10.4 mph - N/A   Overcast
4:56 AM 35.8 °F 29.4 °F 27.1 °F 71% 29.89 in 10.0 mi NNW 8.1 mph 23.0 mph N/A   Overcast
5:16 AM 36.0 °F 29.0 °F 28.2 °F 73% 29.90 in 10.0 mi NNW 9.2 mph 18.4 mph N/A   Overcast
5:37 AM 36.0 °F 28.5 °F 28.6 °F 75% 29.90 in 10.0 mi NW 10.4 mph 19.6 mph N/A   Overcast
5:56 AM 36.5 °F 28.7 °F 29.3 °F 75% 29.91 in 10.0 mi NW 11.5 mph - N/A   Overcast
6:17 AM 36.5 °F 29.2 °F 29.8 °F 77% 29.91 in 10.0 mi NNW 10.4 mph 18.4 mph N/A   Overcast
6:36 AM 36.5 °F 28.2 °F 30.4 °F 78% 29.91 in 10.0 mi NNW 12.7 mph 18.4 mph N/A   Overcast
6:56 AM 35.6 °F 28.6 °F 30.4 °F 81% 29.92 in 10.0 mi NW 9.2 mph 17.3 mph N/A   Overcast
7:17 AM 35.6 °F 29.9 °F 30.9 °F 83% 29.92 in 10.0 mi NNW 6.9 mph - N/A   Overcast
7:36 AM 36.5 °F 30.3 °F 30.4 °F 78% 29.93 in 10.0 mi NNW 8.1 mph 17.3 mph N/A   Overcast
7:56 AM 36.3 °F 28.0 °F 30.7 °F 80% 29.93 in 10.0 mi NNW 12.7 mph 20.7 mph N/A   Overcast
8:16 AM 35.2 °F 27.6 °F 30.4 °F 82% 29.94 in 7.0 mi NNW 10.4 mph 17.3 mph N/A Snow Light Snow
8:36 AM 35.6 °F 27.5 °F 29.5 °F 78% 29.95 in 7.0 mi NNW 11.5 mph 19.6 mph N/A   Overcast
8:56 AM 36.0 °F 28.0 °F 29.3 °F 77% 29.95 in 10.0 mi NNW 11.5 mph 23.0 mph N/A   Overcast
9:16 AM 36.5 °F 28.7 °F 29.5 °F 76% 29.96 in 10.0 mi NNW 11.5 mph 21.9 mph N/A   Overcast
9:36 AM 36.5 °F 29.2 °F 29.3 °F 75% 29.97 in 10.0 mi NNW 10.4 mph 25.3 mph N/A   Overcast
9:57 AM 36.5 °F 29.2 °F 29.1 °F 75% 29.97 in 10.0 mi North 10.4 mph 18.4 mph N/A   Overcast
10:16 AM 36.5 °F 28.7 °F 28.4 °F 72% 29.98 in 10.0 mi North 11.5 mph 18.4 mph N/A   Overcast
10:36 AM 36.5 °F 29.2 °F 27.9 °F 71% 29.98 in 10.0 mi NNW 10.4 mph 25.3 mph N/A   Overcast
10:57 AM 36.9 °F 29.6 °F 27.7 °F 69% 29.99 in 10.0 mi North 10.4 mph 21.9 mph N/A   Overcast
11:16 AM 37.6 °F 30.0 °F 28.0 °F 68% 29.99 in 10.0 mi NNW 11.5 mph 24.2 mph N/A   Overcast
11:36 AM 37.8 °F 30.2 °F 27.3 °F 66% 29.99 in 10.0 mi North 11.5 mph 20.7 mph N/A   Overcast
11:56 AM 37.8 °F 31.8 °F 27.5 °F 67% 30.00 in 10.0 mi North 8.1 mph 18.4 mph N/A   Overcast
12:16 PM 37.8 °F 30.7 °F 27.5 °F 67% 30.01 in 10.0 mi North 10.4 mph 19.6 mph N/A   Overcast
12:36 PM 38.1 °F 31.2 °F 28.0 °F 67% 30.01 in 10.0 mi NNW 10.4 mph 19.6 mph N/A   Overcast
12:56 PM 37.9 °F 30.5 °F 27.1 °F 65% 30.02 in 10.0 mi NNW 11.5 mph 19.6 mph N/A   Overcast
1:16 PM 39.2 °F 33.6 °F 28.2 °F 65% 30.02 in 10.0 mi NNW 8.1 mph 20.7 mph N/A   Overcast
1:37 PM 38.1 °F 31.7 °F 28.6 °F 69% 30.03 in 10.0 mi NNW 9.2 mph 17.3 mph N/A   Overcast
1:56 PM 38.7 °F 32.9 °F 28.9 °F 68% 30.03 in 7.0 mi North 8.1 mph 19.6 mph N/A   Overcast
2:16 PM 37.8 °F 30.7 °F 29.5 °F 72% 30.03 in 10.0 mi NNW 10.4 mph 18.4 mph N/A   Overcast
2:37 PM 38.5 °F 31.6 °F 29.7 °F 71% 30.03 in 10.0 mi NNW 10.4 mph 23.0 mph N/A   Overcast
2:56 PM 40.1 °F 32.0 °F 29.7 °F 66% 30.03 in 10.0 mi NW 15.0 mph 20.7 mph N/A   Overcast
3:16 PM 39.2 °F 32.0 °F 28.6 °F 66% 30.04 in 10.0 mi NNW 11.5 mph 19.6 mph N/A   Overcast
3:36 PM 39.6 °F 32.1 °F 28.8 °F 65% 30.04 in 10.0 mi NNW 12.7 mph 18.4 mph N/A   Overcast
3:56 PM 39.2 °F 31.6 °F 27.9 °F 64% 30.04 in 10.0 mi NW 12.7 mph 19.6 mph N/A   Overcast
4:17 PM 38.5 °F 29.9 °F 29.1 °F 69% 30.05 in 10.0 mi NNW 15.0 mph 20.7 mph N/A   Overcast
4:36 PM 38.5 °F 31.6 °F 28.4 °F 67% 30.06 in 10.0 mi NNW 10.4 mph 23.0 mph N/A   Overcast
4:56 PM 37.8 °F 31.3 °F 28.2 °F 68% 30.06 in 10.0 mi NNW 9.2 mph 17.3 mph N/A   Overcast
5:16 PM 38.1 °F 30.2 °F 28.2 °F 68% 30.06 in 10.0 mi NW 12.7 mph 21.9 mph N/A   Overcast
5:36 PM 37.8 °F 31.8 °F 27.9 °F 67% 30.06 in 10.0 mi NNW 8.1 mph 17.3 mph N/A   Overcast
5:57 PM 37.4 °F 28.9 °F 26.2 °F 64% 30.07 in 10.0 mi NNW 13.8 mph 21.9 mph N/A   Overcast
6:16 PM 37.0 °F 29.8 °F 27.3 °F 68% 30.08 in 10.0 mi North 10.4 mph 17.3 mph N/A   Overcast
6:36 PM 36.7 °F 32.0 °F 28.8 °F 73% 30.08 in 10.0 mi North 5.8 mph - N/A   Overcast
6:57 PM 37.0 °F 31.0 °F 27.9 °F 69% 30.09 in 10.0 mi NNW 8.1 mph - N/A   Overcast
7:16 PM 36.5 °F 28.7 °F 28.9 °F 74% 30.10 in 7.0 mi NNW 11.5 mph 17.3 mph N/A   Overcast
7:36 PM 36.0 °F 29.6 °F 29.1 °F 76% 30.11 in 7.0 mi NNW 8.1 mph 17.3 mph N/A Snow Light Snow
7:57 PM 36.5 °F 29.2 °F 28.0 °F 71% 30.11 in 10.0 mi NNW 10.4 mph 17.3 mph N/A   Overcast
8:16 PM 36.0 °F 28.5 °F 28.9 °F 76% 30.12 in 10.0 mi NW 10.4 mph 17.3 mph N/A   Overcast
8:36 PM 36.5 °F 29.7 °F 28.8 °F 74% 30.12 in 10.0 mi NNW 9.2 mph - N/A   Overcast
8:56 PM 36.5 °F 29.2 °F 29.3 °F 75% 30.12 in 10.0 mi NNW 10.4 mph 20.7 mph N/A   Overcast
9:16 PM 36.5 °F 29.2 °F 29.1 °F 75% 30.12 in 10.0 mi NNW 10.4 mph 16.1 mph N/A   Overcast
9:36 PM 36.0 °F 29.6 °F 28.8 °F 75% 30.12 in 10.0 mi NNW 8.1 mph - N/A   Overcast
9:56 PM 36.1 °F 30.6 °F 28.8 °F 75% 30.12 in 10.0 mi NNW 6.9 mph - N/A   Overcast
10:16 PM 36.0 °F 29.6 °F 28.6 °F 75% 30.13 in 10.0 mi NNW 8.1 mph - N/A   Overcast
10:37 PM 36.0 °F 29.6 °F 28.4 °F 74% 30.12 in 10.0 mi NNW 8.1 mph - N/A   Overcast
10:56 PM 35.8 °F 29.4 °F 28.4 °F 75% 30.13 in 10.0 mi North 8.1 mph - N/A   Overcast
11:37 PM 35.6 °F 28.6 °F 28.4 °F 75% 30.13 in 10.0 mi North 9.2 mph - N/A   Overcast
11:56 PM 35.6 °F 29.2 °F 28.9 °F 77% 30.14 in 10.0 mi North 8.1 mph - N/A   Overcast